This is the latest recevied weather packets stored in our database for station/object XW7RMR. If no packets are shown the sender has not sent any weather packets the latest 10 day(s).
| Time | Temp. | Humidity | Pressure | Rain* | Wind** | Luminosity | Snow |
|---|---|---|---|---|---|---|---|
| 1777044836 | 10.56° C | 75% | 1017.5 hPa | 0 mm | - | 243 W/m² | - |
| 1777044533 | 10.56° C | 76% | 1017.7 hPa | 0 mm | - | 229 W/m² | - |
| 1777044229 | 10.56° C | 76% | 1017.8 hPa | 0 mm | - | 214 W/m² | - |
| 1777043925 | 10.56° C | 76% | 1017.7 hPa | 0 mm | - | 199 W/m² | - |
| 1777043622 | 10.56° C | 77% | 1017.6 hPa | 0 mm | - | 186 W/m² | - |
| 1777043318 | 10.56° C | 78% | 1017.7 hPa | 0 mm | - | 173 W/m² | - |
| 1777043013 | 10.56° C | 77% | 1017.7 hPa | 0 mm | - | 160 W/m² | - |
| 1777042709 | 10° C | 79% | 1017.6 hPa | 0 mm | - | 147 W/m² | - |
| 1777042404 | 10° C | 79% | 1017.5 hPa | 0 mm | - | 135 W/m² | - |
| 1777042101 | 9.44° C | 81% | 1017.8 hPa | 0 mm | - | 123 W/m² | - |
| 1777041798 | 9.44° C | 81% | 1017.7 hPa | 0 mm | - | 99 W/m² | - |
| 1777041494 | 9.44° C | 82% | 1017.8 hPa | 0 mm | - | 102 W/m² | - |
| 1777041190 | 9.44° C | 83% | 1017.7 hPa | 0 mm | - | 93 W/m² | - |
| 1777040887 | 8.89° C | 85% | 1017.8 hPa | 0 mm | - | 84 W/m² | - |
| 1777040583 | 8.89° C | 84% | 1017.7 hPa | 0 mm | - | 74 W/m² | - |
| 1777040277 | 8.89° C | 86% | 1017.8 hPa | 0 mm | - | 65 W/m² | - |
| 1777039972 | 8.33° C | 86% | 1017.8 hPa | 0 mm | - | 57 W/m² | - |
| 1777039668 | 8.33° C | 87% | 1017.8 hPa | 0 mm | - | 49 W/m² | - |
| 1777039363 | 7.78° C | 88% | 1017.6 hPa | 0 mm | - | 41 W/m² | - |
| 1777039058 | 7.78° C | 89% | 1017.8 hPa | 0 mm | - | 36 W/m² | - |
| 1777038754 | 7.78° C | 90% | 1017.7 hPa | 0 mm | - | 31 W/m² | - |
| 1777038450 | 7.78° C | 90% | 1017.7 hPa | 0 mm | - | 26 W/m² | - |
| 1777038145 | 7.78° C | 90% | 1017.6 hPa | 0 mm | - | 22 W/m² | - |
| 1777037841 | 7.22° C | 91% | 1017.7 hPa | 0 mm | - | 18 W/m² | - |
| 1777037536 | 7.78° C | 90% | 1017.7 hPa | 0 mm | - | 14 W/m² | - |
* Rain latest hour (hover to see other rain measurements)
** Current wind speed in m/s (hover to see current wind gust speed)